This is the latest recevied weather packets stored in our database for station/object IU1INZ-13. If no packets are shown the sender has not sent any weather packets the latest 10 day(s).
| Time | Temp. | Humidity | Pressure | Rain* | Wind** | Luminosity | Snow |
|---|---|---|---|---|---|---|---|
| 1777899636 | 16.67° C | 63% | 1018.4 hPa | 0 mm | - | - | - |
| 1777898733 | 16.67° C | 64% | 1018.6 hPa | 0 mm | - | - | - |
| 1777897846 | 17.22° C | 61% | 1018.8 hPa | 0 mm | - | - | - |
| 1777896934 | 17.22° C | 63% | 1018.9 hPa | 0 mm | - | - | - |
| 1777896039 | 17.78° C | 60% | 1018.7 hPa | 0 mm | - | - | - |
| 1777895134 | 17.22° C | 60% | 1018.7 hPa | 0 mm | - | - | - |
| 1777894232 | 17.22° C | 60% | 1018.8 hPa | 0 mm | - | - | - |
| 1777893342 | 17.22° C | 60% | 1018.8 hPa | 0 mm | - | - | - |
| 1777892433 | 17.22° C | 59% | 1018.9 hPa | 0 mm | - | - | - |
| 1777891532 | 17.22° C | 58% | 1019.1 hPa | 0 mm | - | - | - |
| 1777890630 | 17.22° C | 57% | 1019.1 hPa | 0 mm | - | - | - |
| 1777889736 | 17.22° C | 57% | 1019.1 hPa | 0 mm | - | - | - |
| 1777888840 | 16.67° C | 59% | 1018.9 hPa | 0 mm | - | - | - |
| 1777887944 | 16.67° C | 60% | 1019.1 hPa | 0 mm | - | - | - |
| 1777887035 | 16.67° C | 60% | 1019.3 hPa | 0 mm | - | - | - |
| 1777886134 | 16.11° C | 60% | 1019.1 hPa | 0 mm | - | - | - |
| 1777885232 | 15.56° C | 59% | 1019 hPa | 0 mm | - | - | - |
| 1777884338 | 15.56° C | 60% | 1018.8 hPa | 0 mm | - | - | - |
| 1777883435 | 15° C | 56% | 1019 hPa | 0 mm | - | - | - |
| 1777882535 | 15° C | 60% | 1018.8 hPa | 0 mm | - | - | - |
| 1777881639 | 14.44° C | 61% | 1018.6 hPa | 0 mm | - | - | - |
| 1777880735 | 14.44° C | 63% | 1018.5 hPa | 0 mm | - | - | - |
| 1777879841 | 14.44° C | 63% | 1018.4 hPa | 0 mm | - | - | - |
| 1777878936 | 14.44° C | 62% | 1018.2 hPa | 0 mm | - | - | - |
| 1777878035 | 13.89° C | 61% | 1018.2 hPa | 0 mm | - | - | - |
* Rain latest hour (hover to see other rain measurements)
** Current wind speed in m/s (hover to see current wind gust speed)